Location: Devore Heights
(34.2372°N, 117.4156°W)
Time: 03:51:33
(UTC+00:00)

deb Explorer IX - Pass Details

Date: 21 September 2024
Orbit: 504 x 828 km, 38.7° (Epoch: 05 October)

Event Time Altitude Azimuth Distance (km) Brightness Sun altitude
Rises 07:18:00 0° 284° (WNW) 3,405 - -54.8°
Reaches altitude 10° 07:20:56 10° 273° (W) 2,447 - -54.9°
Maximum altitude 07:25:44 27° 217° (SW) 1,520 - -55.1°
Drops below altitude 10° 07:30:16 10° 162° (SSE) 2,305 - -55.2°
Sets 07:32:58 0° 149° (SSE) 3,170 - -55.2°
